Location: Alberta Star Party
(51.6612°N, 112.9089°W)
Time: 01:25:37
(UTC-06:00)

Amateur Radio Satellites - All Passes

Search period start: 25 May 2015 00:55
Search period end: 26 May 2015 00:55
Location: Alberta Star Party, 51.6612°N, 112.9089°W

Satellite Date Start Highest point End Downlink Frequencies (MHz)
Time Altitude Azimuth
QB50P1 25 May 01:01:33 01:05:54 87° 285° (WNW) 01:10:11 145.935-145.965
VELOX 1 25 May 01:01:43 01:04:11 14° 274° (W) 01:06:28 145.980
POLYITAN 1 25 May 01:02:14 01:06:34 85° 286° (WNW) 01:10:51 437.675
PCSat 25 May 01:03:43 01:05:26 12° 103° (ESE) 01:07:26 145.827
AIST 2 25 May 01:05:11 01:07:29 14° 0° (N) 01:09:48 435.215
CUBEBUG 1 25 May 01:05:26 01:08:52 22° 269° (W) 01:12:15 437.445
CUSAT 1 25 May 01:06:29 01:14:27 84° 259° (W) 01:20:49 437.405
ANTELSAT 25 May 01:14:32 01:18:39 36° 294° (WNW) 01:22:38 437.575/2403.000
Cosmos 2499 25 May 01:25:04 01:30:13 21° 54° (NE) 01:35:29 435.465 / 435.565
KKS-1 25 May 01:27:47 01:28:17 10° 51° (NE) 01:28:58 437.445
BEESAT 2 25 May 01:31:10 01:34:01 18° 19° (NNE) 01:36:52 435.950
NANOSAT C BR1 25 May 01:34:00 01:38:06 44° 292° (WNW) 01:42:10 145.865
QB50P2 25 May 01:40:20 01:44:21 38° 293° (WNW) 01:48:18 145.880/145.840
Oscar 19 25 May 01:41:29 01:43:58 14° 84° (E) 01:46:41 437.125/150
TIGRISAT 25 May 01:49:04 01:52:23 20° 301° (WNW) 01:55:34 435.000
SPROUT 25 May 01:53:09 01:56:39 23° 269° (W) 02:00:06 437.525
POPSAT HIP 1 25 May 01:53:22 01:57:10 30° 295° (WNW) 02:00:55 437.405
DUCHIFAT 1 25 May 01:57:17 02:01:02 29° 296° (WNW) 02:04:41 145.980
DANDE 25 May 02:01:55 02:09:56 51° 269° (W) 02:16:36 436.750
ISS 25 May 02:06:39 02:09:35 32° 152° (SSE) 02:12:33 145.825
UNISAT 6 25 May 02:09:08 02:11:36 14° 305° (NW) 02:13:55 437.425
ITUPSAT 1 25 May 02:09:52 02:14:38 84° 73° (ENE) 02:19:26 437.325
GONETS M04 25 May 02:17:42 02:26:16 56° 269° (W) 02:34:39
BEESAT 25 May 02:19:04 02:23:50 81° 254° (WSW) 02:28:39 436.000
BEESAT 3 25 May 02:23:20 02:27:00 30° 33° (NNE) 02:30:40 437.485
O/OREOS (USA 219) 25 May 02:26:36 02:31:06 85° 243° (WSW) 02:35:34 437.305
TISAT 1 25 May 02:26:47 02:29:16 15° 273° (W) 02:31:37 437.305
SWISSCUBE 25 May 02:27:17 02:32:01 64° 258° (WSW) 02:36:46 437.505
BUGSAT 1 25 May 02:31:12 02:34:24 20° 300° (WNW) 02:37:32 437.445
STARS 25 May 02:34:07 02:37:39 24° 61° (ENE) 02:41:14 437.465
QB50P1 25 May 02:38:51 02:41:09 14° 304° (NW) 02:43:19 145.935-145.965
POLYITAN 1 25 May 02:39:37 02:41:51 14° 304° (NW) 02:43:57 437.675
PCSat 25 May 02:42:35 02:47:55 63° 122° (ESE) 02:53:19 145.827
AIST 2 25 May 02:44:12 02:47:32 21° 24° (NNE) 02:50:51 435.215
CUSAT 1 25 May 02:50:27 02:55:54 21° 283° (WNW) 03:00:29 437.405
KKS-1 25 May 02:59:39 03:04:02 55° 69° (ENE) 03:08:28 437.445
BEESAT 2 25 May 03:08:55 03:12:59 51° 41° (NE) 03:16:59 435.950
Cosmos 2499 25 May 03:17:29 03:24:40 85° 77° (ENE) 03:31:47 435.465 / 435.565
Oscar 19 25 May 03:19:03 03:24:17 81° 104° (ESE) 03:29:27 437.125/150
ITAMSAT 1 25 May 03:28:15 03:33:00 34° 95° (E) 03:37:46 435.822/435.867
ISS 25 May 03:42:32 03:45:48 83° 167° (SSE) 03:49:05 145.825
DANDE 25 May 03:47:58 03:51:14 13° 290° (WNW) 03:53:53 436.750
ITUPSAT 1 25 May 03:50:24 03:53:15 15° 274° (W) 03:55:55 437.325
Gurwin Techsat 1B 25 May 03:52:47 03:57:59 52° 99° (E) 04:03:11 435.225
BEESAT 25 May 04:00:31 04:02:35 12° 276° (W) 04:04:26 436.000
BEESAT 3 25 May 04:01:12 04:05:13 54° 234° (SW) 04:09:10 437.485
O/OREOS (USA 219) 25 May 04:07:57 04:09:51 12° 261° (W) 04:11:33 437.305
STARS 25 May 04:09:28 04:13:50 52° 260° (W) 04:18:13 437.465
Cosmos 2491 25 May 04:10:30 04:11:57 11° 29° (NNE) 04:13:47 435.465 / 435.565
MOZHAYETS 4 25 May 04:13:12 04:17:09 30° 64° (ENE) 04:21:10
AO-7 25 May 04:13:57 04:19:50 21° 85° (E) 04:26:01 29.400- 29.500
GONETS M04 25 May 04:17:16 04:21:12 13° 292° (WNW) 04:24:36
AIST 2 25 May 04:22:30 04:26:47 74° 46° (NE) 04:30:59 435.215
PCSat 25 May 04:26:45 04:31:43 35° 324° (NW) 04:36:41 145.827
KKS-1 25 May 04:37:34 04:41:03 21° 270° (W) 04:44:26 437.445
BEESAT 2 25 May 04:47:22 04:50:53 27° 241° (WSW) 04:54:18 435.950
Oscar 19 25 May 04:59:20 05:03:06 20° 304° (NW) 05:06:45 437.125/150
JAS-2 25 May 05:03:06 05:08:02 41° 97° (E) 05:12:58 435.910
SO-50 25 May 05:06:35 05:11:14 58° 126° (SE) 05:16:03 436.795
ITAMSAT 1 25 May 05:07:42 05:12:38 43° 295° (WNW) 05:17:31 435.822/435.867
Cosmos 2499 25 May 05:11:49 05:16:58 21° 281° (W) 05:21:52 435.465 / 435.565
VERMONT LUNAR 25 May 05:12:09 05:12:59 11° 172° (S) 05:13:52 437.305
HORYU 2 25 May 05:14:12 05:18:35 55° 100° (E) 05:22:57 437.375
ISS 25 May 05:18:56 05:22:13 81° 191° (S) 05:25:30 145.825
Gurwin Techsat 1B 25 May 05:33:09 05:37:47 30° 299° (WNW) 05:42:21 435.225
CUBESAT XI-V 25 May 05:46:11 05:49:53 25° 62° (ENE) 05:53:41 437.345
MOZHAYETS 4 25 May 05:49:58 05:54:18 40° 263° (W) 05:58:37
AIST 2 25 May 06:01:56 06:04:55 18° 245° (WSW) 06:07:46 435.215
Cosmos 2491 25 May 06:04:51 06:12:39 34° 59° (ENE) 06:20:32 435.465 / 435.565
AO-7 25 May 06:05:42 06:14:07 80° 108° (ESE) 06:22:32 29.400- 29.500
PCSat 25 May 06:13:11 06:16:45 17° 349° (N) 06:20:16 145.827
STRAND 1 25 May 06:13:26 06:17:30 25° 59° (ENE) 06:21:40 437.568
PRISM 25 May 06:27:32 06:31:01 28° 64° (ENE) 06:34:34 437.425
SO-50 25 May 06:47:34 06:52:03 36° 328° (NNW) 06:56:37 436.795
JAS-2 25 May 06:48:28 06:53:12 34° 298° (WNW) 06:57:48 435.910
VERMONT LUNAR 25 May 06:48:33 06:49:20 11° 189° (S) 06:50:07 437.305
HORYU 2 25 May 06:51:26 06:54:56 23° 300° (WNW) 06:58:20 437.375
PHONESAT 2.4 25 May 06:51:50 06:53:34 13° 176° (S) 06:55:17 2401.200-2431.200
M-CUBED/EXP-1 PRIME 25 May 06:52:44 06:56:41 43° 63° (ENE) 07:00:21 437.505
ISS 25 May 06:55:29 06:58:24 30° 210° (SSW) 07:01:19 145.825
AUBIESAT-1 25 May 07:02:53 07:06:50 48° 64° (ENE) 07:10:31 437.475
CUTE-I 25 May 07:04:52 07:09:18 26° 91° (E) 07:13:49 437.470
YUBILEINY 25 May 07:06:27 07:12:47 24° 77° (ENE) 07:19:22 435.215
CUBESAT XI-V 25 May 07:22:36 07:27:05 51° 261° (W) 07:31:38 437.345
Cubesat XI-IV 25 May 07:24:34 07:29:31 37° 96° (E) 07:34:29 437.490
STRAND 1 25 May 07:51:20 07:56:23 62° 259° (W) 08:01:28 437.568
PCSat 25 May 07:58:33 08:02:14 18° 15° (NNE) 08:05:57 145.827
AO-7 25 May 07:59:02 08:06:20 34° 311° (NW) 08:13:31 29.400- 29.500
Cosmos 2491 25 May 08:01:38 08:10:28 74° 264° (W) 08:19:13 435.465 / 435.565
PRISM 25 May 08:02:36 08:06:24 36° 263° (W) 08:10:12 437.425
AIST 1 25 May 08:05:03 08:09:09 38° 72° (ENE) 08:13:16
BRITE-PL 25 May 08:19:45 08:23:25 18° 83° (E) 08:27:13 437.365/2234.400
M-CUBED/EXP-1 PRIME 25 May 08:28:15 08:31:40 23° 260° (W) 08:34:50 437.505
PHONESAT 2.4 25 May 08:29:54 08:30:48 11° 193° (SSW) 08:31:39 2401.200-2431.200
SO-50 25 May 08:30:22 08:33:54 19° 352° (N) 08:37:26 436.795
GOMX 1 25 May 08:33:09 08:35:59 15° 81° (E) 08:38:59 467.674
AUBIESAT-1 25 May 08:38:37 08:41:48 21° 261° (W) 08:44:46 437.475
CUTE-I 25 May 08:44:30 08:49:47 58° 292° (WNW) 08:55:02 437.470
HO-68 25 May 08:49:37 08:54:05 18° 84° (E) 08:58:50 435.675
YUBILEINY 25 May 08:59:44 09:08:33 88° 98° (E) 09:17:20 435.215
Cubesat XI-IV 25 May 09:04:40 09:09:42 41° 295° (WNW) 09:14:42 437.490
ANTELSAT 25 May 09:09:29 09:10:12 10° 51° (NE) 09:11:07 437.575/2403.000
CANX-2 25 May 09:26:19 09:29:37 22° 91° (E) 09:32:58 2200.000
CUTE 1.7 + AOD 2 25 May 09:30:11 09:33:28 22° 91° (E) 09:36:49 437.475
CINEMA 3 25 May 09:35:41 09:38:32 16° 84° (E) 09:41:29 145.822/145.860
Cosmos 2504 25 May 09:35:50 09:41:14 21° 78° (ENE) 09:46:43 435.465 / 435.565
TIGRISAT 25 May 09:40:33 09:43:36 18° 58° (ENE) 09:46:45 435.000
PCSat 25 May 09:42:01 09:47:08 40° 39° (NE) 09:52:15 145.827
DOVE 4 25 May 09:42:17 09:47:01 34° 93° (E) 09:51:37 437.250
AIST 1 25 May 09:42:58 09:46:42 27° 271° (W) 09:50:21
AO-7 25 May 09:52:52 09:56:44 14° 336° (NNW) 10:00:26 29.400- 29.500
RS-15 25 May 09:55:33 10:05:35 46° 114° (ESE) 10:16:02 29.354- 29.394
SEEDS 25 May 09:55:35 09:59:21 32° 95° (E) 10:03:07 437.485
BRITE-PL 25 May 09:57:01 10:02:47 89° 94° (E) 10:08:23 437.365/2234.400
UNISAT 6 25 May 09:59:15 10:03:01 25° 62° (ENE) 10:06:49 437.425
Cosmos 2491 25 May 10:00:03 10:05:56 19° 286° (WNW) 10:11:24 435.465 / 435.565
GOMX 1 25 May 10:09:35 10:15:06 80° 103° (ESE) 10:20:23 467.674
COMPASS 1 25 May 10:11:53 10:15:45 37° 96° (E) 10:19:38 437.405
FUNcube-1 25 May 10:12:00 10:12:49 11° 82° (E) 10:13:51 145.935
SO-50 25 May 10:12:15 10:16:03 21° 16° (NNE) 10:19:54 436.795
BUGSAT 1 25 May 10:17:30 10:19:24 13° 55° (NE) 10:21:27 437.445
QB50P1 25 May 10:24:56 10:28:05 21° 61° (ENE) 10:31:20 145.935-145.965
AAUSAT CUBESAT 2 25 May 10:25:38 10:29:36 44° 98° (E) 10:33:35 437.432
POLYITAN 1 25 May 10:25:46 10:29:00 21° 61° (ENE) 10:32:19 437.675
CUTE-I 25 May 10:26:24 10:28:54 13° 311° (NW) 10:31:12 437.470
HO-68 25 May 10:35:58 10:43:10 77° 106° (ESE) 10:50:20 435.675
CUBEBUG 2 25 May 10:39:25 10:43:24 30° 93° (E) 10:47:19 437.445
ANTELSAT 25 May 10:41:32 10:46:07 54° 70° (ENE) 10:50:40 437.575/2403.000
ZACube-1 25 May 10:49:35 10:53:11 25° 91° (E) 10:56:45 437.345
NANOSAT C BR1 25 May 10:56:04 10:59:59 36° 67° (ENE) 11:03:57 145.865
UKube-1 25 May 10:56:22 10:58:33 14° 87° (E) 11:00:55 .
YUBILEINY 25 May 10:59:20 11:06:42 28° 305° (NW) 11:13:52 435.215
HUMSAT D 25 May 10:59:54 11:02:19 15° 87° (E) 11:04:52 437.325/437.525
CANX-2 25 May 11:01:44 11:05:48 46° 290° (WNW) 11:09:50 2200.000
DX 1 25 May 11:01:50 11:04:39 17° 89° (E) 11:07:36 434.975-435.025
QB50P2 25 May 11:02:30 11:06:33 43° 68° (ENE) 11:10:40 145.880/145.840
CUTE 1.7 + AOD 2 25 May 11:05:34 11:09:39 46° 290° (WNW) 11:13:41 437.475
DELFI C3 25 May 11:05:35 11:09:25 41° 98° (E) 11:13:14 145.870
Oscar 11 25 May 11:06:05 11:10:21 55° 100° (E) 11:14:34 145.826/435.025
VELOX 1 25 May 11:09:53 11:11:05 11° 84° (E) 11:12:32 145.980
CINEMA 3 25 May 11:11:34 11:16:28 80° 286° (WNW) 11:21:08 145.822/145.860
POPSAT HIP 1 25 May 11:15:06 11:19:17 54° 70° (ENE) 11:23:31 437.405
TIGRISAT 25 May 11:15:08 11:19:51 81° 256° (WSW) 11:24:31 435.000
DUCHIFAT 1 25 May 11:18:35 11:22:46 57° 71° (ENE) 11:27:00 145.980
DOVE 4 25 May 11:19:55 11:24:53 42° 294° (WNW) 11:29:35 437.250
Cosmos 2504 25 May 11:25:23 11:33:41 82° 98° (E) 11:41:26 435.465 / 435.565
PCSat 25 May 11:25:28 11:30:44 51° 241° (WSW) 11:35:57 145.827
UWE-3 25 May 11:30:30 11:35:01 72° 102° (ESE) 11:39:21 435.000/436.395/437.385
SEEDS 25 May 11:31:23 11:35:09 32° 294° (WNW) 11:38:51 437.485
UNISAT 6 25 May 11:34:57 11:39:33 53° 260° (W) 11:44:07 437.425
BRITE-PL 25 May 11:36:25 11:40:38 21° 304° (NW) 11:44:39 437.365/2234.400
AISAT 25 May 11:39:08 11:42:34 22° 91° (E) 11:46:06 437.250
FUNcube-1 25 May 11:45:37 11:50:03 80° 103° (ESE) 11:54:20 145.935
AO-7 25 May 11:45:47 11:45:51 10° 5° (N) 11:45:59 29.400- 29.500
COMPASS 1 25 May 11:47:46 11:51:20 27° 295° (WNW) 11:54:50 437.405
GOMX 1 25 May 11:48:29 11:52:38 22° 303° (WNW) 11:56:36 467.674
BUGSAT 1 25 May 11:50:04 11:54:14 83° 74° (ENE) 11:58:29 437.445
SO-50 25 May 11:52:48 11:57:40 51° 39° (NE) 12:02:30 436.795
QB50P1 25 May 11:59:23 12:03:37 58° 259° (WSW) 12:07:53 145.935-145.965
POLYITAN 1 25 May 12:00:20 12:04:35 56° 259° (W) 12:08:52 437.675
AAUSAT CUBESAT 2 25 May 12:01:40 12:05:01 24° 297° (WNW) 12:08:18 437.432
RS-15 25 May 12:06:35 12:17:33 72° 320° (NW) 12:28:58 29.354- 29.394
CUBEBUG 2 25 May 12:15:57 12:20:12 38° 294° (WNW) 12:24:17 437.445
ANTELSAT 25 May 12:19:27 12:23:13 23° 269° (W) 12:26:52 437.575/2403.000
50 SAT 25 May 12:20:55 12:24:46 54° 100° (E) 12:28:34 437.505
HO-68 25 May 12:24:17 12:30:24 31° 307° (NW) 12:36:22 435.675
ZACube-1 25 May 12:25:34 12:29:47 44° 292° (WNW) 12:33:52 437.345
UKube-1 25 May 12:30:57 12:35:20 81° 287° (WNW) 12:39:42 .
NANOSAT C BR1 25 May 12:32:06 12:35:53 29° 266° (W) 12:39:40 145.865
HUMSAT D 25 May 12:34:25 12:38:38 68° 286° (WNW) 12:42:44 437.325/437.525
CUSAT 1 25 May 12:36:46 12:42:10 22° 78° (ENE) 12:48:11 437.405
DX 1 25 May 12:37:01 12:41:25 68° 288° (WNW) 12:45:46 434.975-435.025
QB50P2 25 May 12:39:02 12:42:38 25° 268° (W) 12:46:12 145.880/145.840
ESTCUBE 1 25 May 12:39:43 12:44:06 47° 99° (E) 12:48:29 437.505/2401.250
DELFI C3 25 May 12:41:04 12:44:21 24° 296° (WNW) 12:47:34 145.870
Oscar 11 25 May 12:42:55 12:46:13 21° 299° (WNW) 12:49:25 145.826/435.025
VELOX 1 25 May 12:43:59 12:48:30 79° 103° (ESE) 12:53:00 145.980
CUBEBUG 1 25 May 12:47:29 12:51:49 49° 99° (E) 12:56:09 437.445
CINEMA 3 25 May 12:50:06 12:52:55 15° 306° (NW) 12:55:32 145.822/145.860
POPSAT HIP 1 25 May 12:52:16 12:55:30 20° 270° (W) 12:58:41 437.405
TIGRISAT 25 May 12:55:27 12:57:25 12° 276° (W) 12:59:09 435.000
DUCHIFAT 1 25 May 12:55:52 12:58:59 19° 271° (W) 13:02:01 145.980
Oscar 19 25 May 13:02:46 13:07:26 35° 63° (ENE) 13:12:10 437.125/150
UWE-3 25 May 13:07:59 13:11:04 18° 302° (WNW) 13:13:58 435.000/436.395/437.385
ITAMSAT 1 25 May 13:14:34 13:17:54 18° 54° (NE) 13:21:23 435.822/435.867
AISAT 25 May 13:15:05 13:19:31 54° 290° (WNW) 13:23:54 437.250
Cosmos 2504 25 May 13:21:12 13:28:03 28° 301° (WNW) 13:34:24 435.465 / 435.565
FUNcube-1 25 May 13:23:03 13:25:49 16° 303° (WNW) 13:28:27 145.935
BUGSAT 1 25 May 13:28:22 13:30:22 13° 275° (W) 13:32:13 437.445
GONETS M04 25 May 13:29:03 13:36:57 40° 85° (E) 13:45:00
AO-7 25 May 13:30:15 13:35:17 18° 33° (NNE) 13:40:31 29.400- 29.500
SPROUT 25 May 13:33:17 13:37:28 44° 98° (E) 13:41:37 437.525
SO-50 25 May 13:33:34 13:38:09 37° 239° (WSW) 13:42:39 436.795
DANDE 25 May 13:34:01 13:40:40 39° 87° (E) 13:48:22 436.750
Gurwin Techsat 1B 25 May 13:40:55 13:45:10 26° 59° (ENE) 13:49:32 435.225
50 SAT 25 May 13:56:22 13:59:10 19° 299° (WNW) 14:01:51 437.505
TISAT 1 25 May 14:03:27 14:07:45 64° 102° (ESE) 14:11:59 437.305
ITUPSAT 1 25 May 14:06:16 14:08:55 15° 86° (E) 14:11:45 437.325
UKube-1 25 May 14:08:36 14:10:50 14° 305° (NW) 14:12:55 .
HUMSAT D 25 May 14:12:25 14:13:37 11° 306° (NW) 14:14:39 437.325/437.525
Cosmos 2499 25 May 14:12:31 14:15:38 13° 73° (ENE) 14:19:06 435.465 / 435.565
BEESAT 25 May 14:14:43 14:17:55 18° 88° (E) 14:21:15 436.000
HO-68 25 May 14:14:55 14:16:00 10° 331° (NNW) 14:16:50 435.675
DX 1 25 May 14:15:13 14:16:55 12° 307° (NW) 14:18:27 434.975-435.025
CUSAT 1 25 May 14:16:11 14:23:43 79° 100° (E) 14:32:07 437.405
ESTCUBE 1 25 May 14:16:58 14:20:47 26° 297° (WNW) 14:24:30 437.505/2401.250
RS-15 25 May 14:21:33 14:32:03 44° 352° (N) 14:42:59 29.354- 29.394
VELOX 1 25 May 14:21:35 14:24:34 17° 303° (WNW) 14:27:26 145.980
SWISSCUBE 25 May 14:22:36 14:26:18 23° 91° (E) 14:30:07 437.505
CUBEBUG 1 25 May 14:24:18 14:27:57 25° 298° (WNW) 14:31:32 437.445
Oscar 19 25 May 14:41:48 14:46:44 42° 262° (W) 14:51:42 437.125/150
HORYU 2 25 May 14:43:08 14:45:54 17° 57° (ENE) 14:48:46 437.375
ITAMSAT 1 25 May 14:51:35 14:56:46 87° 69° (ENE) 15:02:01 435.822/435.867
AISAT 25 May 14:54:54 14:55:12 10° 309° (NW) 14:55:19 437.250
SPROUT 25 May 15:09:43 15:13:22 26° 297° (WNW) 15:16:57 437.525
DANDE 25 May 15:16:11 15:23:34 63° 290° (WNW) 15:32:06 436.750
AO-7 25 May 15:18:28 15:26:17 49° 57° (ENE) 15:34:13 29.400- 29.500
Gurwin Techsat 1B 25 May 15:19:32 15:24:48 64° 258° (WSW) 15:30:07 435.225
JAS-2 25 May 15:20:27 15:26:20 39° 64° (ENE) 15:31:40 435.910
GONETS M04 25 May 15:24:47 15:33:33 60° 288° (WNW) 15:42:19
TISAT 1 25 May 15:40:03 15:43:08 19° 300° (WNW) 15:46:06 437.305
ITUPSAT 1 25 May 15:42:43 15:47:33 85° 285° (WNW) 15:52:20 437.325
BEESAT 25 May 15:51:34 15:56:20 71° 288° (WNW) 16:01:06 436.000
STARS 25 May 15:54:20 15:57:37 20° 90° (E) 16:00:57 437.465
Cosmos 2499 25 May 15:59:36 16:07:27 60° 94° (E) 16:14:48 435.465 / 435.565
SWISSCUBE 25 May 15:59:51 16:04:33 57° 291° (WNW) 16:09:14 437.505
CUSAT 1 25 May 16:00:23 16:07:21 33° 303° (WNW) 16:14:40 437.405
HORYU 2 25 May 16:17:31 16:22:01 83° 255° (WSW) 16:26:32 437.375
KKS-1 25 May 16:21:47 16:26:12 53° 100° (E) 16:30:36 437.445
ITAMSAT 1 25 May 16:33:45 16:37:04 16° 274° (W) 16:40:13 435.822/435.867
RS-15 25 May 16:36:21 16:47:19 52° 24° (NNE) 16:58:51 29.354- 29.394
O/OREOS (USA 219) 25 May 16:44:18 16:48:27 38° 109° (ESE) 16:52:38 437.305
CUTE-I 25 May 16:55:07 16:58:00 15° 51° (NE) 17:01:03 437.470
DANDE 25 May 17:02:58 17:08:50 21° 315° (NW) 17:14:51 436.750
Gurwin Techsat 1B 25 May 17:04:44 17:06:01 11° 280° (W) 17:06:59 435.225
JAS-2 25 May 17:05:05 17:11:26 47° 262° (W) 17:17:05 435.910
YUBILEINY 25 May 17:07:11 17:12:38 18° 44° (NE) 17:18:22 435.215
AO-7 25 May 17:11:04 17:19:08 53° 259° (W) 17:27:15 29.400- 29.500
Cubesat XI-IV 25 May 17:14:07 17:17:52 20° 55° (NE) 17:21:46 437.490
ITUPSAT 1 25 May 17:21:52 17:24:49 16° 305° (NW) 17:27:37 437.325
GONETS M04 25 May 17:26:52 17:32:48 18° 316° (NW) 17:38:26
STARS 25 May 17:30:04 17:34:27 56° 290° (WNW) 17:38:46 437.465
BEESAT 25 May 17:31:01 17:33:26 14° 307° (NW) 17:35:41 436.000
MOZHAYETS 4 25 May 17:39:23 17:43:30 33° 95° (E) 17:47:38
SWISSCUBE 25 May 17:39:59 17:41:31 11° 310° (NW) 17:42:53 437.505
CUSAT 1 25 May 17:50:12 17:53:04 12° 328° (NNW) 17:55:38 437.405
Cosmos 2499 25 May 17:53:45 18:01:03 37° 295° (WNW) 18:07:49 435.465 / 435.565
HORYU 2 25 May 17:57:43 17:59:29 12° 276° (W) 18:01:01 437.375
KKS-1 25 May 17:58:56 18:02:35 24° 299° (WNW) 18:06:06 437.445
O/OREOS (USA 219) 25 May 18:23:46 18:27:56 34° 309° (NW) 18:32:04 437.305
CUTE-I 25 May 18:31:59 18:37:15 69° 71° (ENE) 18:42:35 437.470
BEESAT 2 25 May 18:46:57 18:49:17 15° 113° (ESE) 18:51:45 435.950
RS-15 25 May 18:49:20 19:00:51 81° 232° (SW) 19:12:53 29.354- 29.394
Cubesat XI-IV 25 May 18:52:05 18:57:24 84° 252° (WSW) 19:02:48 437.490
YUBILEINY 25 May 19:03:14 19:11:51 60° 72° (ENE) 19:20:26 435.215
STARS 25 May 19:09:20 19:10:02 10° 309° (NW) 19:10:33 437.465
AO-7 25 May 19:11:23 19:14:21 12° 284° (WNW) 19:16:42 29.400- 29.500
CUBESAT XI-V 25 May 19:13:52 19:17:53 28° 93° (E) 19:21:58 437.345
Cosmos 2491 25 May 19:14:24 19:21:30 30° 80° (E) 19:28:50 435.465 / 435.565
MOZHAYETS 4 25 May 19:16:35 19:20:47 36° 294° (WNW) 19:24:57
DOVE 4 25 May 19:18:23 19:20:42 13° 51° (NE) 19:23:14 437.250
Cosmos 2504 25 May 19:21:04 19:22:16 10° 38° (NE) 19:23:49 435.465 / 435.565
HO-68 25 May 19:24:07 19:29:53 28° 51° (NE) 19:35:46 435.675
BRITE-PL 25 May 19:35:19 19:39:52 32° 62° (ENE) 19:44:45 437.365/2234.400
BEESAT 3 25 May 19:36:08 19:40:03 46° 124° (SE) 19:44:02 437.485
PRISM 25 May 19:39:37 19:42:46 21° 92° (E) 19:45:59 437.425
GOMX 1 25 May 19:45:40 19:50:01 27° 60° (ENE) 19:54:35 467.674
STRAND 1 25 May 19:56:27 20:00:57 30° 94° (E) 20:05:31 437.568
AIST 2 25 May 20:04:00 20:07:32 26° 118° (ESE) 20:11:08 435.215
M-CUBED/EXP-1 PRIME 25 May 20:05:58 20:06:04 10° 93° (E) 20:06:20 437.505
CUTE-I 25 May 20:13:50 20:17:56 22° 271° (W) 20:21:54 437.470
AUBIESAT-1 25 May 20:14:42 20:15:42 11° 94° (E) 20:16:49 437.475
BEESAT 2 25 May 20:22:41 20:26:50 87° 311° (NW) 20:31:01 435.950
CANX-2 25 May 20:24:17 20:28:05 32° 66° (ENE) 20:31:55 2200.000
CUTE 1.7 + AOD 2 25 May 20:28:05 20:31:52 32° 66° (ENE) 20:35:41 437.475
Oscar 11 25 May 20:32:31 20:34:38 14° 56° (NE) 20:36:55 145.826/435.025
Cubesat XI-IV 25 May 20:35:22 20:38:27 15° 276° (W) 20:41:19 437.490
AIST 1 25 May 20:41:39 20:44:19 17° 85° (E) 20:47:07
CINEMA 3 25 May 20:41:47 20:46:02 29° 63° (ENE) 20:50:22 145.822/145.860
CUBESAT XI-V 25 May 20:51:02 20:55:30 44° 292° (WNW) 20:59:58 437.345
DOVE 4 25 May 20:52:23 20:57:27 59° 71° (ENE) 21:02:44 437.250
SEEDS 25 May 20:52:38 20:56:40 45° 69° (ENE) 21:00:43 437.485
UWE-3 25 May 20:57:49 21:01:01 19° 59° (ENE) 21:04:20 435.000/436.395/437.385
YUBILEINY 25 May 21:00:31 21:08:25 39° 275° (W) 21:16:09 435.215
RS-15 25 May 21:02:36 21:11:54 28° 256° (WSW) 21:21:03 29.354- 29.394
COMPASS 1 25 May 21:08:05 21:12:09 52° 71° (ENE) 21:16:15 437.405
Cosmos 2491 25 May 21:08:46 21:17:36 79° 283° (WNW) 21:26:31 435.465 / 435.565
HO-68 25 May 21:09:44 21:16:57 86° 252° (WSW) 21:24:12 435.675
Cosmos 2504 25 May 21:11:34 21:18:24 41° 66° (ENE) 21:25:08 435.465 / 435.565
FUNcube-1 25 May 21:11:38 21:14:50 20° 60° (ENE) 21:18:09 145.935
BRITE-PL 25 May 21:13:07 21:18:09 51° 263° (W) 21:23:34 437.365/2234.400
BEESAT 3 25 May 21:14:23 21:18:10 34° 325° (NW) 21:21:58 437.485
PRISM 25 May 21:14:29 21:18:29 48° 291° (WNW) 21:22:30 437.425
AAUSAT CUBESAT 2 25 May 21:21:23 21:25:30 61° 72° (ENE) 21:29:37 437.432
GOMX 1 25 May 21:22:37 21:27:46 61° 260° (W) 21:33:12 467.674
STRAND 1 25 May 21:35:27 21:40:23 47° 294° (WNW) 21:45:17 437.568
M-CUBED/EXP-1 PRIME 25 May 21:38:10 21:41:32 70° 293° (WNW) 21:44:48 437.505
50 SAT 25 May 21:40:06 21:40:25 10° 55° (NE) 21:40:53 437.505
AIST 2 25 May 21:41:38 21:45:52 56° 317° (NW) 21:50:06 435.215
CUBEBUG 2 25 May 21:42:15 21:46:51 49° 69° (ENE) 21:51:27 437.445
AUBIESAT-1 25 May 21:47:40 21:51:00 62° 295° (WNW) 21:54:16 437.475
ZACube-1 25 May 21:50:16 21:54:32 39° 67° (ENE) 21:58:49 437.345
UKube-1 25 May 21:55:53 21:59:22 25° 62° (ENE) 22:02:57 .
HUMSAT D 25 May 21:56:29 21:59:55 24° 63° (ENE) 22:03:23 437.325/437.525
DELFI C3 25 May 21:57:56 22:01:52 53° 71° (ENE) 22:05:49 145.870
CANX-2 25 May 22:00:07 22:04:01 33° 265° (W) 22:07:52 2200.000
BEESAT 2 25 May 22:02:08 22:05:29 23° 334° (NNW) 22:08:49 435.950
DX 1 25 May 22:02:16 22:06:03 29° 63° (ENE) 22:09:53 434.975-435.025
CUTE 1.7 + AOD 2 25 May 22:03:53 22:07:46 33° 265° (W) 22:11:38 437.475
Oscar 11 25 May 22:05:52 22:10:13 85° 75° (ENE) 22:14:35 145.826/435.025
ESTCUBE 1 25 May 22:10:28 22:12:45 14° 55° (NE) 22:15:10 437.505/2401.250
VELOX 1 25 May 22:11:43 22:15:01 21° 60° (ENE) 22:18:24 145.980
CUBEBUG 1 25 May 22:15:19 22:17:21 13° 55° (NE) 22:19:33 437.445
AIST 1 25 May 22:17:19 22:21:32 60° 284° (WNW) 22:25:49
CINEMA 3 25 May 22:18:08 22:23:01 51° 262° (W) 22:27:57 145.822/145.860
DANDE 25 May 22:27:08 22:31:43 16° 38° (NE) 22:36:16 436.750
SEEDS 25 May 22:29:16 22:32:42 23° 269° (W) 22:36:02 437.485
DOVE 4 25 May 22:31:20 22:35:37 25° 271° (W) 22:39:56 437.250
UWE-3 25 May 22:32:22 22:37:05 75° 257° (WSW) 22:41:47 435.000/436.395/437.385
AISAT 25 May 22:41:52 22:45:58 37° 66° (ENE) 22:50:08 437.250
COMPASS 1 25 May 22:45:02 22:48:10 20° 270° (W) 22:51:13 437.405
FUNcube-1 25 May 22:46:09 22:50:45 70° 258° (WSW) 22:55:20 145.935
BEESAT 3 25 May 22:54:51 22:57:16 15° 348° (NNW) 22:59:40 437.485
AAUSAT CUBESAT 2 25 May 22:58:46 23:01:33 17° 272° (W) 23:04:13 437.432
SPROUT 25 May 23:00:04 23:01:23 11° 54° (NE) 23:02:52 437.525
HO-68 25 May 23:00:32 23:05:50 21° 274° (W) 23:10:54 435.675
TIGRISAT 25 May 23:02:58 23:05:23 15° 86° (E) 23:07:56 435.000
Cosmos 2504 25 May 23:05:02 23:12:00 48° 270° (W) 23:18:46 435.465 / 435.565
GOMX 1 25 May 23:06:03 23:07:13 10° 282° (WNW) 23:08:03 467.674
CUSAT 1 25 May 23:07:33 23:13:47 25° 51° (NE) 23:19:19 437.405
Cosmos 2491 25 May 23:09:20 23:16:15 24° 309° (NW) 23:22:58 435.465 / 435.565
50 SAT 25 May 23:10:27 23:14:25 67° 73° (ENE) 23:18:24 437.505
STRAND 1 25 May 23:17:31 23:18:31 10° 313° (NW) 23:19:18 437.568
CUBEBUG 2 25 May 23:19:44 23:23:47 26° 269° (W) 23:27:45 437.445
UNISAT 6 25 May 23:22:06 23:25:34 22° 90° (E) 23:29:03 437.425
AIST 2 25 May 23:22:11 23:25:18 19° 340° (NNW) 23:28:23 435.215
ZACube-1 25 May 23:26:53 23:31:00 30° 266° (W) 23:35:02 437.345
TISAT 1 25 May 23:27:16 23:29:39 15° 57° (ENE) 23:32:09 437.305
UKube-1 25 May 23:31:06 23:35:17 47° 260° (W) 23:39:31 .
HUMSAT D 25 May 23:31:13 23:35:25 49° 261° (W) 23:39:38 437.325/437.525
GONETS M04 25 May 23:31:34 23:38:51 28° 55° (NE) 23:46:16
DELFI C3 25 May 23:34:27 23:37:19 18° 270° (W) 23:40:07 145.870
DX 1 25 May 23:38:06 23:42:12 38° 262° (W) 23:46:19 434.975-435.025
QB50P1 25 May 23:40:02 23:42:46 17° 88° (E) 23:45:35 145.935-145.965
POLYITAN 1 25 May 23:41:15 23:44:04 17° 88° (E) 23:46:59 437.675
BEESAT 2 25 May 23:42:51 23:44:57 13° 357° (N) 23:47:03 435.950
ESTCUBE 1 25 May 23:44:29 23:48:59 82° 72° (ENE) 23:53:30 437.505/2401.250
Oscar 11 25 May 23:44:55 23:47:04 13° 275° (W) 23:49:03 145.826/435.025
VELOX 1 25 May 23:46:49 23:51:13 60° 259° (WSW) 23:55:40 145.980
CUBEBUG 1 25 May 23:48:41 23:53:03 79° 74° (ENE) 23:57:29 437.445
ANTELSAT 26 May 00:04:53 00:09:16 54° 100° (E) 00:13:32 437.575/2403.000
DANDE 26 May 00:09:33 00:17:33 46° 63° (ENE) 00:24:19 436.750
NANOSAT C BR1 26 May 00:11:09 00:14:59 31° 95° (E) 00:18:49 145.865
UWE-3 26 May 00:12:55 00:14:30 11° 278° (W) 00:15:52 435.000/436.395/437.385
QB50P2 26 May 00:18:07 00:22:08 37° 96° (E) 00:26:07 145.880/145.840
AISAT 26 May 00:18:38 00:22:38 31° 265° (W) 00:26:37 437.250
FUNcube-1 26 May 00:27:42 00:28:01 10° 278° (W) 00:28:03 145.935
POPSAT HIP 1 26 May 00:30:38 00:34:48 47° 99° (E) 00:38:57 437.405
SPROUT 26 May 00:32:26 00:36:43 67° 72° (ENE) 00:41:03 437.525
DUCHIFAT 1 26 May 00:33:36 00:37:47 49° 99° (E) 00:41:57 145.980
BEESAT 3 26 May 00:34:27 00:36:47 15° 11° (NNE) 00:39:09 437.485
TIGRISAT 26 May 00:38:19 00:42:48 77° 287° (WNW) 00:47:07 435.000
50 SAT 26 May 00:47:17 00:49:37 15° 272° (W) 00:51:49 437.505
